RH
42 7 40 48 50 88 92 83 68 46 52 52 63 84 91 87 80 95 94 87 56 22 13 26 34 38 39 38 37 37 37 36 37 34 29 29 39 31 80 44 13 42 44 27 26 39 46
12 27 31 26 51 91 99 96 92 81 76 76 96 78 68 80 76 77 86 81 55 48 36 27 17 27 29 25 34 37 35 31 37 36 33 27 42 30 77 48 14 37 48 37 40 34 34
5 27 26 22 49 66 88 100 100 97 93 77 89 95 83 75 75 79 83 69 62 55 80 72 31 9 18 17 24 27 33 26 35 40 35 35 44 30 60 54 14 30 50 50 49 52 64
11 20 28 30 58 60 73 44 50 90 100 100 100 97 94 88 77 68 60 52 67 96 68 66 91 33 13 17 19 19 26 40 32 52 47 55 56 32 58 57 13 26 46 55 55 56 50
8 19 24 24 55 73 91 45 37 39 59 92 100 100 100 100 97 92 93 79 92 100 90 80 97 67 43 20 28 23 34 49 39 62 47 74 54 49 79 63 14 20 33 47 44 44 37
4 19 18 23 49 53 69 91 64 89 92 82 91 100 100 100 100 96 99 99 100 100 95 97 87 88 85 78 82 36 76 62 68 98 83 51 52 58 80 61 12 15 25 33 34 32 27
18 16 13 22 43 38 48 78 86 90 94 87 95 96 99 100 100 98 100 100 100 100 98 81 91 100 81 99 95 70 77 64 100 95 64 49 59 50 81 53 9 15 30 31 27 32 19
60 8 17 19 31 35 40 54 86 89 91 93 97 87 82 95 98 99 97 99 100 99 100 100 96 74 85 97 90 97 99 98 96 88 79 73 69 72 89 28 8 13 20 25 35 24 11
72 49 20 19 27 29 34 54 71 85 72 89 94 97 93 86 98 98 100 99 99 98 98 93 95 98 91 98 91 89 98 100 99 90 88 84 91 84 72 15 6 12 15 27 30 20 13
38 72 21 21 45 28 26 56 87 88 66 74 88 92 78 89 98 98 98 99 97 98 95 98 98 99 98 97 87 83 90 81 97 98 100 96 82 70 23 4 5 11 14 16 11 12 11
28 79 32 22 37 29 28 50 80 75 71 89 88 95 97 97 97 97 98 99 96 97 97 99 98 97 96 93 97 95 92 97 100 92 91 77 68 27 5 3 4 5 11 9 8 8 8
28 34 92 21 29 47 30 37 62 91 87 81 82 94 96 97 96 99 97 96 96 97 92 97 98 97 97 98 97 96 97 97 97 95 92 37 25 6 3 2 2 2 2 4 5 7 8
36 35 60 48 19 45 40 46 64 70 92 84 82 93 90 95 87 81 96 96 95 88 93 95 96 93 97 97 97 97 97 97 81 80 28 14 7 4 3 2 2 2 4 7 9 12 10
36 36 38 90 15 30 56 36 48 70 72 97 94 95 92 79 93 85 94 92 94 94 84 95 96 96 96 96 96 95 94 85 40 27 16 8 4 3 3 4 5 6 8 9 10 10 10
25 37 41 74 51 18 52 42 40 52 64 72 98 90 81 78 87 95 96 96 96 89 89 92 95 97 97 96 91 93 78 54 30 18 11 7 6 5 5 5 5 6 7 8 8 8 7
19 40 36 45 90 9 30 72 46 47 62 67 80 95 100 95 87 77 88 89 97 93 95 89 94 96 94 96 94 71 73 51 29 20 15 11 13 8 8 8 7 12 12 13 11 11 15
24 33 41 43 92 37 14 46 60 52 60 58 52 78 90 77 90 84 71 79 89 80 90 95 97 94 96 95 96 90 59 63 30 30 27 22 21 22 19 18 17 16 17 17 18 20 22
26 32 44 40 51 66 12 21 80 59 56 61 62 59 57 72 74 86 80 78 86 73 81 81 90 96 96 98 97 96 92 87 62 40 34 30 26 22 19 18 18 22 26 29 31 33 41
22 50 47 43 46 83 13 8 38 73 59 57 52 48 50 47 70 68 76 84 92 90 83 92 92 95 96 97 98 98 96 95 95 94 83 55 32 24 22 24 27 36 44 48 51 52 52
17 62 54 53 41 72 30 6 20 54 66 55 57 50 67 66 63 68 64 66 91 96 90 89 90 93 90 96 92 94 93 94 95 92 89 78 67 60 54 64 67 65 68 64 57 41 30
16 51 67 70 39 59 34 3 8 37 50 48 56 48 71 53 82 83 79 66 65 70 89 96 97 94 91 90 88 96 96 95 96 95 95 94 91 84 82 78 72 67 50 33 27 19 25
17 27 70 70 60 44 48 4 3 19 46 52 48 58 64 66 75 77 82 85 80 79 86 86 86 84 81 72 68 72 73 75 76 69 65 61 55 56 51 47 43 36 22 21 19 18 17
18 19 58 64 72 44 68 13 2 8 27 52 42 45 71 76 70 72 77 87 90 84 72 76 73 44 39 37 36 35 33 33 34 32 29 27 26 25 25 23 22 21 23 26 38 56 54
19 19 29 58 55 53 53 38 5 2 17 35 43 39 44 61 77 78 79 79 70 56 42 36 35 33 27 24 22 20 20 21 23 24 23 25 24 22 22 21 20 33 60 55 35 19 17
22 20 23 36 45 70 47 77 17 4 10 23 32 33 33 35 58 69 70 63 45 33 27 29 27 24 22 17 16 13 13 15 15 14 12 12 15 21 40 49 57 42 22 19 18 17 12
26 23 21 29 34 50 65 49 73 10 6 12 28 34 27 30 27 59 51 53 36 34 36 20 16 14 15 22 27 60 78 87 92 94 93 86 76 55 48 43 31 22 17 14 12 12 12
31 27 22 26 34 38 62 62 54 65 11 7 24 25 19 22 28 29 47 43 42 32 18 14 11 27 50 57 41 70 90 88 74 63 46 37 30 26 20 18 17 17 16 17 18 17 16
37 30 25 24 33 40 46 64 64 55 63 23 10 17 17 13 13 16 27 37 20 12 8 7 18 28 57 87 88 91 88 53 35 30 28 27 25 24 21 20 19 20 22 22 22 24 25
43 34 27 27 27 38 49 48 63 66 54 55 61 55 35 13 10 10 10 12 12 11 9 13 40 51 74 81 72 58 43 33 32 30 30 30 26 22 21 22 26 26 26 26 29 30 26
Wind_Speed
54 44 43 51 55 52 38 33 30 28 31 18 20 13 12 14 19 24 27 33 41 55 70 84 90 88 86 83 77 67 66 65 62 58 52 50 46 43 39 38 39 33 28 29 31 29 26
47 40 48 56 54 57 49 38 33 28 23 20 17 16 17 14 14 18 22 25 30 35 43 53 72 87 90 81 77 74 68 67 64 59 54 52 45 43 41 40 38 34 30 29 26 28 30
39 38 46 55 51 56 56 55 48 30 19 15 14 9 11 16 13 15 18 21 24 29 27 34 44 65 88 83 78 75 74 65 65 61 57 52 47 47 42 42 40 35 32 30 27 27 30
33 36 42 46 42 49 51 48 47 41 37 26 16 8 1 9 12 17 19 25 25 24 33 36 37 50 61 59 74 75 71 67 67 63 59 54 52 50 44 41 38 35 34 31 28 29 30
32 34 38 44 42 46 42 40 39 36 34 35 26 22 18 5 7 14 12 18 23 20 23 37 36 43 50 60 62 67 69 67 68 62 61 55 56 49 45 40 40 36 32 31 28 29 31
34 33 38 43 40 45 48 43 33 35 35 31 33 24 34 31 18 21 23 28 15 20 28 32 42 49 41 44 38 56 56 67 63 61 57 59 50 47 44 40 37 36 33 31 28 30 28
34 28 33 40 38 44 48 38 35 33 39 31 35 36 35 29 24 20 24 29 30 16 29 35 36 39 44 43 39 59 64 68 66 54 56 55 48 47 40 36 42 37 34 28 30 30 26
39 31 30 32 34 40 44 40 42 35 30 25 30 30 27 27 36 36 41 37 26 34 28 27 42 37 43 50 59 53 65 72 61 52 51 51 49 46 42 43 40 34 30 27 31 31 26
39 34 32 27 27 32 41 38 39 30 23 30 34 32 32 34 44 41 32 26 28 35 35 29 31 36 44 34 44 64 58 54 51 51 46 40 41 48 43 37 39 36 31 30 32 30 26
34 31 25 24 19 24 33 33 32 25 26 31 32 32 34 32 33 40 32 28 34 34 35 30 34 40 36 44 54 63 60 56 53 39 38 41 44 39 40 39 37 35 30 29 30 29 26
33 32 19 20 19 20 25 25 29 23 17 21 25 24 29 25 25 30 28 33 29 29 29 32 32 37 38 50 47 60 53 53 47 46 47 43 39 42 38 34 35 26 28 31 30 26 23
29 31 27 13 16 15 20 23 23 22 18 17 18 28 34 36 27 25 24 32 28 26 25 25 38 38 44 46 57 57 57 53 57 51 41 40 40 38 31 28 24 25 26 28 25 22 25
28 29 33 9 13 9 14 17 12 16 21 10 16 18 23 32 26 26 27 31 27 23 19 36 30 35 40 38 47 44 47 48 45 44 41 36 32 27 25 23 22 23 24 24 22 20 22
26 24 28 19 5 7 5 11 8 8 13 19 11 23 21 22 27 22 19 17 22 27 35 27 32 30 29 38 45 44 44 45 40 37 34 30 30 26 22 19 18 21 23 24 24 23 21
24 25 23 27 1 3 3 3 8 5 10 15 15 16 15 19 18 19 22 21 20 24 19 27 32 29 38 29 35 39 41 39 35 32 29 29 24 22 20 19 19 21 19 18 18 18 18
25 23 21 23 12 7 8 5 3 3 9 13 15 18 14 12 10 11 16 17 13 16 25 24 24 22 25 25 33 36 35 32 29 25 21 20 19 20 19 19 19 18 17 16 17 18 18
25 21 20 19 18 4 13 14 10 9 8 10 13 12 12 10 14 16 19 15 9 10 18 21 26 22 22 25 28 35 30 30 26 22 22 20 19 18 18 18 18 17 17 16 17 18 20
24 21 19 17 17 12 12 18 20 19 12 7 8 8 8 13 14 16 13 11 13 10 14 18 20 22 20 23 21 26 32 29 24 22 19 19 19 18 18 19 19 18 17 18 20 19 23
22 19 18 16 15 14 5 20 24 22 19 13 9 3 7 15 21 16 15 11 9 16 16 16 18 16 15 14 16 22 21 25 25 22 21 18 18 19 20 20 19 18 18 19 21 23 25
22 17 17 17 13 13 2 16 21 25 24 19 13 7 10 17 11 15 12 9 11 10 17 18 18 14 10 10 11 12 18 21 19 19 18 19 21 21 21 18 20 20 21 21 21 18 23
22 16 16 16 12 9 7 5 23 26 25 22 18 10 10 15 15 12 11 13 13 10 10 13 13 6 5 7 8 9 11 13 14 14 14 16 18 21 22 23 23 21 16 17 20 20 29
21 18 14 15 15 7 7 4 19 24 27 22 21 18 14 15 16 16 13 14 12 11 13 10 9 10 9 9 9 9 9 9 9 9 10 10 12 15 15 17 18 19 18 24 26 27 31
22 19 16 15 15 8 6 9 13 25 27 28 22 21 19 18 21 16 16 17 16 15 12 11 11 7 5 4 4 5 5 8 10 12 12 14 16 18 18 22 25 24 24 26 28 28 29
23 21 19 17 15 11 1 7 13 24 29 29 26 21 17 18 21 21 20 19 17 13 10 7 5 5 2 4 6 8 10 13 15 16 18 20 22 23 23 27 28 25 20 21 23 24 29
24 23 21 19 16 12 7 6 10 21 30 30 26 23 21 18 20 21 20 21 18 14 9 5 8 7 8 10 12 15 16 16 18 19 20 21 22 21 20 24 25 20 23 27 30 32 36
26 25 23 21 18 14 12 10 10 16 28 32 31 28 25 21 21 26 26 27 22 17 16 14 12 12 11 14 14 11 10 10 11 10 12 14 17 19 21 23 26 26 29 33 37 42 46
29 27 26 23 20 18 15 14 14 15 21 31 34 32 31 31 30 26 31 29 25 26 26 20 19 17 18 18 20 18 13 12 13 15 16 17 19 21 25 29 31 33 37 40 43 49 53
31 30 29 26 24 21 20 17 18 19 20 25 31 37 37 34 35 34 36 38 35 31 29 26 24 24 25 21 19 20 15 15 16 19 21 21 24 26 30 33 36 38 42 47 52 55 58
32 31 31 29 28 27 23 22 21 22 24 23 25 27 29 33 35 35 33 32 33 32 31 29 27 26 24 22 21 21 21 21 24 23 25 23 30 34 37 37 41 46 51 56 58 58 60
Wind_Direction
341 345 354 359 358 357 355 355 348 335 342 298 305 280 256 245 245 230 223 227 224 225 227 229 229 227 226 225 222 220 220 222 223 223 224 226 222 220 218 223 218 210 206 211 214 209 215
348 357 4 357 0 4 9 5 356 346 359 343 311 280 243 250 236 226 219 214 214 214 214 221 226 228 225 222 224 221 220 218 219 221 222 222 218 219 218 221 217 214 207 208 212 212 221
355 6 5 357 9 5 9 12 12 1 12 355 357 315 261 232 251 213 198 194 187 194 192 202 209 221 224 220 219 218 219 218 216 218 220 221 215 218 219 221 216 215 211 213 216 219 223
357 5 6 4 9 1 8 16 18 21 24 21 18 11 30 252 212 188 186 185 192 198 199 192 185 201 217 212 216 213 210 208 211 212 216 219 221 222 217 221 218 219 214 218 221 230 233
356 5 7 5 17 8 18 25 20 20 22 24 25 25 37 47 135 160 171 180 166 170 180 180 181 183 185 194 205 201 202 201 204 206 210 215 217 216 215 220 219 221 217 221 226 234 239
358 8 5 7 14 17 19 21 26 23 26 27 33 63 61 67 79 109 117 114 126 155 180 184 176 158 166 167 177 187 192 193 193 195 198 210 213 213 216 219 220 225 220 223 229 235 234
360 360 359 7 11 16 21 27 34 32 32 40 59 66 78 84 95 109 106 117 112 136 132 141 143 150 150 159 167 180 181 184 189 193 203 209 211 212 221 220 221 224 217 217 229 234 233
6 358 359 6 4 14 19 17 17 24 43 45 59 77 84 88 98 97 107 106 92 128 119 144 142 143 158 156 171 178 173 183 178 189 200 208 212 210 217 220 219 223 222 226 234 240 232
11 1 358 358 15 23 19 20 14 27 54 65 67 71 88 107 98 98 87 106 111 127 141 141 154 155 155 168 172 182 178 171 177 190 196 204 200 209 213 219 221 221 219 224 236 239 238
8 10 360 352 11 18 22 23 22 32 68 83 76 87 104 101 89 86 99 106 122 130 142 141 142 149 156 164 175 175 174 181 181 186 191 199 202 203 211 216 216 218 220 229 237 238 235
1 12 2 349 1 24 32 32 35 47 82 81 70 89 95 91 85 79 91 121 130 128 116 126 150 153 162 172 164 166 175 173 180 188 193 195 190 202 208 209 215 218 225 233 237 239 238
356 7 6 353 351 28 44 39 39 56 69 62 78 84 100 80 98 75 93 116 117 131 125 120 142 145 149 153 152 156 170 174 177 187 184 184 192 199 201 204 208 214 222 229 232 235 240
350 0 13 8 335 15 49 56 52 64 63 57 77 82 109 94 95 95 106 113 95 116 126 135 141 145 154 151 158 164 171 173 177 171 177 182 187 189 192 196 203 209 213 216 219 224 233
343 356 14 9 330 331 48 55 64 66 70 73 104 96 108 96 82 98 93 86 80 97 122 131 143 140 153 156 167 168 164 161 162 172 178 180 185 179 182 185 194 200 207 215 215 220 227
340 342 8 20 18 268 269 65 69 60 89 78 108 116 106 131 96 90 89 81 87 105 118 134 141 143 151 157 164 165 152 163 168 173 173 182 177 179 180 186 194 203 205 210 221 230 236
333 338 356 20 24 228 206 193 114 103 108 85 89 153 131 130 120 111 115 85 88 86 107 133 151 145 149 160 163 156 158 167 166 167 174 178 182 181 185 193 201 205 207 215 228 235 241
328 333 340 7 27 245 208 190 175 160 158 108 109 131 160 141 125 125 128 105 98 107 117 111 138 140 147 152 164 162 166 168 171 174 178 181 188 190 193 202 207 214 222 232 240 252 261
323 325 333 352 17 40 227 204 182 173 176 158 131 116 168 172 157 148 156 124 99 123 137 129 130 149 151 151 170 180 181 175 175 184 191 195 199 208 210 217 222 229 240 251 258 266 276
315 318 326 336 3 27 251 203 194 178 182 197 184 188 139 160 162 157 146 135 153 128 133 132 135 133 145 167 177 185 193 192 194 194 201 213 221 224 228 232 240 252 260 268 276 281 289
307 310 317 325 351 18 90 212 199 192 190 195 193 182 162 149 183 173 168 164 149 137 149 146 144 137 129 128 140 165 193 209 205 211 216 223 230 242 248 258 261 267 274 277 280 291 278
299 296 308 322 334 15 80 239 198 196 187 190 191 181 158 160 156 165 158 150 157 161 149 152 148 144 150 136 126 142 153 158 178 194 206 227 243 251 256 260 264 267 275 282 285 283 285
291 284 291 315 318 358 81 161 198 190 194 198 188 181 170 143 155 156 149 138 138 146 138 158 145 147 149 145 148 152 162 175 182 199 211 224 237 250 261 264 270 270 270 271 279 285 288
282 278 271 295 314 316 94 149 190 194 193 197 194 187 177 159 162 164 156 151 147 137 136 138 146 146 148 159 172 199 213 224 232 237 238 242 247 251 259 271 273 282 288 293 295 297 296
272 269 263 273 296 296 207 130 170 194 197 195 199 198 190 188 179 177 174 167 163 163 164 168 183 210 225 258 266 267 263 260 257 256 257 257 260 263 267 268 270 280 290 288 290 295 300
261 263 259 258 273 286 258 163 176 182 195 193 198 203 209 200 201 194 188 182 185 197 203 215 289 272 293 302 299 286 279 277 272 273 272 271 270 271 276 272 278 296 296 292 296 295 297
253 254 253 252 252 261 259 216 175 190 191 198 200 208 212 214 211 203 194 193 198 217 252 269 277 285 286 296 294 276 260 266 274 276 273 273 278 285 289 291 294 296 289 294 295 297 297
248 247 246 247 244 243 253 243 209 185 195 200 207 213 215 218 222 219 214 213 227 243 258 260 269 280 290 286 280 260 244 262 271 270 270 270 273 283 286 286 286 289 293 295 299 299 295
245 243 242 240 242 236 234 245 240 215 194 197 207 215 225 228 227 227 228 232 239 243 253 261 265 275 280 271 264 256 250 265 262 262 265 275 281 283 281 285 289 296 298 296 297 298 299
242 243 241 240 238 237 234 233 240 239 229 216 206 209 216 223 228 231 234 237 243 250 253 255 260 271 262 259 261 263 253 253 257 263 274 290 284 286 286 288 297 298 297 299 301 301 299